DW6399 Weather Reports


Display with metric or nautical units.
time (UTC)temp
F
wind
direction
speed
MPH
gust
MPH
rain 1hr
in
rain 24hr
in
rain mn
in
humidity
%
barometer
mb
20260904140925 58 170 2.0 6.0 0.00 0.11 0.05 79 994.8
20260904140004 58 167 3.0 7.0 0.00 0.11 0.05 79 995.0
20260904135404 58 162 4.0 8.0 0.00 0.11 0.05 79 995.0
20260904134504 58 164 4.0 8.0 0.00 0.11 0.05 79 995.0
20260904133604 58 161 4.0 8.0 0.00 0.11 0.05 79 995.0
20260904132704 58 151 3.0 6.0 0.00 0.11 0.05 78 995.0
20260904131825 58 162 4.0 8.0 0.00 0.11 0.05 78 995.1
20260904130904 58 168 2.0 6.0 0.00 0.11 0.05 79 995.1
20260904130004 58 164 4.0 7.0 0.00 0.11 0.05 78 995.1
20260904125404 58 169 4.0 6.0 0.00 0.11 0.05 79 995.1
20260904124504 58 173 3.0 7.0 0.00 0.11 0.05 78 995.1
20260904123604 58 160 4.0 9.0 0.00 0.11 0.05 80 995.2
20260904122725 58 159 4.0 10.0 0.00 0.11 0.05 79 995.1
20260904121825 57 169 4.0 9.0 0.00 0.11 0.05 80 995.4
20260904120904 57 168 3.0 6.0 0.00 0.11 0.05 80 995.5
20260904120004 57 169 4.0 8.0 0.00 0.11 0.05 80 995.5
20260904115404 57 179 3.0 8.0 0.00 0.11 0.05 80 995.5
20260904114504 57 181 3.0 6.0 0.00 0.11 0.05 81 995.6
20260904113604 57 167 2.0 5.0 0.00 0.11 0.05 80 995.8
20260904112704 57 199 2.0 5.0 0.00 0.11 0.05 83 995.8
20260904111804 57 190 2.0 5.0 0.00 0.11 0.05 83 995.8
20260904110904 56 164 3.0 7.0 0.00 0.11 0.05 84 995.8
20260904110025 56 167 3.0 8.0 0.00 0.11 0.05 85 995.9
20260904105404 55 168 3.0 8.0 0.00 0.11 0.05 85 995.9
20260904104525 55 163 3.0 7.0 0.00 0.11 0.05 85 996.0
20260904103605 55 169 4.0 7.0 0.00 0.11 0.05 85 996.0
20260904102704 55 165 3.0 5.0 0.00 0.11 0.05 86 996.1
20260904101825 55 169 3.0 6.0 0.00 0.11 0.05 85 996.3
20260904100904 55 171 2.0 5.0 0.00 0.11 0.05 85 996.3
20260904100004 55 159 2.0 6.0 0.00 0.11 0.05 85 996.3
20260904095404 55 164 4.0 7.0 0.00 0.11 0.05 85 996.3
20260904094504 55 158 3.0 6.0 0.00 0.11 0.05 87 996.4
20260904093604 55 167 3.0 5.0 0.00 0.11 0.05 86 996.3
20260904092704 55 172 3.0 7.0 0.00 0.11 0.05 87 996.5
20260904091825 55 151 4.0 7.0 0.00 0.11 0.05 87 996.5
20260904090904 55 185 2.0 7.0 0.00 0.11 0.05 87 996.5
20260904090004 55 179 2.0 7.0 0.00 0.11 0.05 88 996.4
20260904085404 54 157 3.0 7.0 0.00 0.11 0.05 88 996.5
20260904084504 54 161 3.0 8.0 0.00 0.11 0.05 88 996.4
20260904083604 54 155 4.0 7.0 0.00 0.11 0.05 89 996.5
20260904082704 54 164 4.0 6.0 0.00 0.11 0.05 89 996.5
20260904081825 54 167 3.0 5.0 0.00 0.11 0.05 90 996.5
20260904080904 53 163 3.0 6.0 0.00 0.11 0.05 91 996.5
20260904080004 53 163 3.0 6.0 0.00 0.11 0.05 91 996.5
20260904075404 52 166 4.0 7.0 0.00 0.11 0.05 91 996.5
20260904074504 52 173 4.0 7.0 0.00 0.11 0.05 91 996.4
20260904073625 52 169 4.0 6.0 0.00 0.11 0.05 91 996.4
20260904072704 52 169 4.0 7.0 0.00 0.11 0.05 91 996.6
20260904071825 52 172 3.0 6.0 0.00 0.11 0.05 91 996.4
20260904070904 52 164 3.0 6.0 0.00 0.11 0.05 91 996.4
20260904070004 52 165 3.0 6.0 0.00 0.11 0.05 92 996.4
20260904065404 52 160 3.0 6.0 0.00 0.11 0.05 92 996.5
20260904064504 52 169 3.0 7.0 0.00 0.11 0.05 93 996.5
20260904063604 51 166 3.0 6.0 0.00 0.11 0.05 93 996.5
20260904062704 51 166 3.0 6.0 0.00 0.11 0.05 93 996.5
20260904061804 51 176 2.0 5.0 0.00 0.11 0.05 93 996.5
20260904060904 51 186 1.0 4.0 0.00 0.11 0.05 93 996.5
20260904060004 51 186 1.0 3.0 0.00 0.11 0.05 94 996.7
20260904055404 51 190 1.0 4.0 0.00 0.11 0.05 94 996.7
20260904054504 51 197 2.0 7.0 0.00 0.11 0.05 95 996.7
20260904053604 50 170 2.0 6.0 0.00 0.11 0.05 95 996.7
20260904052704 50 201 2.0 6.0 0.00 0.11 0.05 95 996.7
20260904051825 49 197 1.0 3.0 0.00 0.11 0.05 95 996.8
20260904050904 49 197 1.0 4.0 0.00 0.11 0.05 95 996.9
20260904050004 48 197 1.0 3.0 0.00 0.11 0.05 95 996.8
20260904045425 48 197 1.0 3.0 0.00 0.11 0.05 95 996.9
20260904044504 48 196 0.0 2.0 0.00 0.11 0.05 94 997.0
20260904043604 48 197 0.0 1.0 0.00 0.11 0.05 94 997.0
20260904042704 48 197 1.0 2.0 0.00 0.11 0.05 94 997.0
20260904041804 48 197 1.0 2.0 0.00 0.11 0.05 94 997.1
20260904040904 48 197 1.0 3.0 0.00 0.11 0.05 94 997.1
20260904040025 48 197 1.0 3.0 0.00 0.11 0.05 95 997.2
20260904035425 48 197 1.0 2.0 0.00 0.11 0.05 94 997.2
20260904034504 48 197 0.0 2.0 0.00 0.11 0.05 94 997.2
20260904033604 48 197 1.0 4.0 0.00 0.11 0.05 94 997.1
20260904032725 48 197 0.0 3.0 0.00 0.11 0.05 94 997.3
20260904031804 48 197 0.0 1.0 0.00 0.11 0.05 94 997.3
20260904030904 48 197 0.0 2.0 0.00 0.11 0.05 94 997.4
20260904030004 48 197 1.0 3.0 0.00 0.11 0.05 94 997.4
20260904025425 48 197 1.0 3.0 0.00 0.11 0.05 94 997.4
20260904024504 48 197 1.0 3.0 0.00 0.11 0.05 94 997.4
20260904023604 48 197 0.0 2.0 0.00 0.11 0.05 94 997.5
20260904022725 48 197 1.0 4.0 0.00 0.11 0.05 94 997.5
20260904021804 48 197 1.0 3.0 0.00 0.11 0.05 94 997.5
20260904020904 48 205 1.0 4.0 0.00 0.11 0.05 94 997.6
20260904020025 48 179 1.0 4.0 0.01 0.11 0.05 94 997.6
20260904015404 48 197 2.0 4.0 0.01 0.11 0.05 94 997.6
20260904014504 49 217 1.0 5.0 0.01 0.11 0.05 94 997.6
20260904013625 49 344 1.0 2.0 0.01 0.11 0.05 94 997.7
20260904012704 49 344 1.0 3.0 0.01 0.11 0.05 94 997.7
20260904011804 49 344 1.0 3.0 0.01 0.11 0.05 94 997.8
20260904010904 49 344 0.0 1.0 0.02 0.11 0.05 94 997.9
20260904010004 49 344 0.0 2.0 0.02 0.10 0.04 94 997.9
20260904005404 49 344 0.0 1.0 0.02 0.10 0.04 94 997.9
20260904004504 49 0 0.0 0.0 0.03 0.10 0.04 94 998.0
20260904003604 49 0 0.0 0.0 0.03 0.10 0.04 94 998.1
20260904002704 49 0 0.0 0.0 0.04 0.10 0.04 94 998.2
20260904001804 49 0 0.0 0.0 0.04 0.10 0.04 94 998.2
20260904000925 49 344 0.0 2.0 0.03 0.09 0.03 94 998.2
20260904000025 49 344 0.0 2.0 0.02 0.08 0.02 94 998.3
20260903235404 49 0 0.0 0.0 0.02 0.08 0.02 94 998.3
20260903234525 49 344 0.0 1.0 0.01 0.07 0.01 94 998.3
20260903233604 49 0 0.0 0.0 0.01 0.07 0.01 94 998.3
20260903232704 49 0 0.0 0.0 0.00 0.06 0.00 94 998.3
20260903231804 49 344 0.0 1.0 0.00 0.06 0.00 94 998.3
20260903230904 49 344 0.0 2.0 0.00 0.06 0.00 94 998.4
20260903230025 49 0 0.0 0.0 0.00 0.06 0.00 94 998.4
20260903225404 49 344 0.0 2.0 0.00 0.06 0.00 94 998.5
20260903224504 49 344 0.0 3.0 0.00 0.06 0.00 94 998.4
20260903223604 49 296 0.0 4.0 0.00 0.06 0.00 94 998.4
20260903222704 49 158 0.0 2.0 0.00 0.06 0.00 94 998.5
20260903221804 49 158 0.0 3.0 0.00 0.06 0.00 94 998.5
20260903220904 49 180 0.0 5.0 0.00 0.06 0.00 94 998.5
20260903220004 49 213 1.0 6.0 0.00 0.06 0.00 94 998.5
20260903215404 49 259 0.0 3.0 0.00 0.06 0.00 94 998.5
20260903214525 49 259 0.0 2.0 0.00 0.06 0.00 94 998.4
20260903213625 50 259 0.0 2.0 0.00 0.06 0.00 94 998.4
20260903212704 50 214 1.0 5.0 0.00 0.06 0.00 94 998.5
20260903211804 50 155 1.0 3.0 0.00 0.06 0.00 94 998.6
20260903210904 50 155 0.0 1.0 0.00 0.06 0.00 94 998.6
20260903210006 50 155 0.0 2.0 0.00 0.06 0.00 94 998.7
20260903205425 50 155 1.0 3.0 0.01 0.06 0.06 94 998.7
20260903204504 50 155 0.0 1.0 0.01 0.06 0.06 93 998.7
20260903203625 50 155 0.0 1.0 0.01 0.06 0.06 93 998.7
20260903202704 50 155 0.0 2.0 0.01 0.06 0.06 93 998.7
20260903201825 50 155 1.0 3.0 0.01 0.06 0.06 93 998.7
20260903200925 51 0 0.0 0.0 0.01 0.06 0.06 93 998.9
20260903200004 51 0 0.0 0.0 0.01 0.06 0.06 93 999.0
20260903195404 51 0 0.0 0.0 0.00 0.05 0.05 92 999.1
20260903194504 51 155 0.0 1.0 0.01 0.05 0.05 92 999.2
20260903193604 51 155 0.0 2.0 0.01 0.05 0.05 92 999.1
20260903192704 51 155 0.0 2.0 0.01 0.05 0.05 92 999.1
20260903191804 51 155 3.0 8.0 0.01 0.05 0.05 92 999.3
20260903190904 52 167 2.0 6.0 0.01 0.05 0.05 91 999.5
20260903190006 52 321 1.0 3.0 0.02 0.05 0.05 91 999.3
20260903185404 52 324 2.0 5.0 0.03 0.05 0.05 91 999.3
20260903184504 52 324 4.0 5.0 0.03 0.04 0.04 91 999.3
20260903183604 52 320 5.0 8.0 0.04 0.04 0.04 91 999.3
20260903182704 52 304 2.0 5.0 0.04 0.04 0.04 90 999.4
20260903181804 52 302 1.0 3.0 0.04 0.04 0.04 90 999.4
20260903180904 52 303 3.0 7.0 0.04 0.04 0.04 89 999.5
20260903180004 53 295 2.0 6.0 0.03 0.03 0.03 88 999.5
20260903175404 53 291 3.0 6.0 0.02 0.02 0.03 86 999.5
20260903174504 54 272 2.0 6.0 0.01 0.01 0.01 85 999.5
20260903173604 55 286 2.0 6.0 0.00 0.00 0.00 83 999.5
20260903172725 56 247 3.0 12.0 0.00 0.00 0.00 81 999.4
20260903171804 56 260 2.0 7.0 0.00 0.00 0.00 82 999.3
20260903170904 56 230 2.0 7.0 0.00 0.00 0.00 83 999.2
20260903170004 56 256 5.0 10.0 0.00 0.00 0.00 84 999.1
20260903165404 55 276 5.0 10.0 0.00 0.00 0.00 85 998.9
20260903164504 54 156 0.0 2.0 0.00 0.00 0.00 89 998.5
20260903163604 54 0 0.0 0.0 0.00 0.00 0.00 89 998.5
20260903162725 55 0 0.0 0.0 0.00 0.00 0.00 88 998.5
20260903161804 55 156 0.0 1.0 0.00 0.00 0.00 87 998.5
20260903160904 56 156 0.0 1.0 0.00 0.00 0.00 86 998.5
20260903160004 58 156 0.0 1.0 0.00 0.00 0.00 84 998.5
20260903155404 59 156 0.0 1.0 0.00 0.00 0.00 81 998.6
20260903154504 60 156 1.0 2.0 0.00 0.00 0.00 79 998.6
20260903153604 61 157 1.0 3.0 0.00 0.00 0.00 76 998.6
20260903152704 61 157 2.0 5.0 0.00 0.00 0.00 75 998.7
20260903151804 61 157 2.0 5.0 0.00 0.00 0.00 76 998.8
20260903150904 62 161 3.0 6.0 0.00 0.00 0.00 74 998.8
20260903150004 62 162 2.0 5.0 0.00 0.00 0.00 72 998.8
20260903145404 62 156 3.0 9.0 0.00 0.00 0.00 73 998.7
20260903144504 62 171 3.0 7.0 0.00 0.00 0.00 72 998.7
20260903143604 63 199 2.0 4.0 0.00 0.00 0.00 71 998.7
20260903142704 63 155 3.0 8.0 0.00 0.00 0.00 71 998.8
20260903141804 63 147 4.0 8.0 0.00 0.00 0.00 70 998.8